Phnom Penh, Cambodia

3:03 PM +07 on March 27, 2017 (GMT +0700)
Pochentong International

Weather History for VDPP - February, 2014

Change the Weather History Date:

Wednesday, February 5, 2014

  Actual Average Record
Temperature  
Mean Temperature 79 °F -  
Max Temperature 87 °F 88 °F 96 °F (2013)
Min Temperature 71 °F 74 °F 69 °F (1999)
Cooling Degree Days 14    
Growing Degree Days 29 (Base 50)    
Moisture  
Dew Point 68 °F    
Average Humidity 65    
Maximum Humidity 93    
Minimum Humidity 48    
Precipitation  
Precipitation 0.00 in - - ()
Sea Level Pressure  
Sea Level Pressure 29.74 in    
Wind  
Wind Speed 7 mph ()    
Max Wind Speed 13 mph    
Max Gust Speed -    
Visibility 5.6 miles    
Events      
Averages and records for this station are not official NWS values.
T = Trace of Precipitation, MM = Missing Value Source: Averaged Metar Reports

Daily Weather History Graph

Daily Weather History Graph

Search for Another Location

Airport or City:

Trip Planner

Search our weather history database for the weather conditions in past years. The results will help you decide how hot, cold, wet, or windy it might be!

Date:

Astronomy

Feb. 05, 2014 Rise Set
Actual Time 6:24 AM +07 6:04 PM +07
Civil Twilight 6:02 AM +07 6:26 PM +07
Nautical Twilight 5:37 AM +07 6:52 PM +07
Astronomical Twilight 5:12 AM +07 7:17 PM +07
Moon 10:28 AM +07 (2/5) 11:12 PM +07 (2/5)
Length of Visible Light 12h 24m
Length of Day
11h 40m
Waxing Crescent, 34% of the Moon is Illuminated
Feb 5
Waxing Crescent
Feb 7
First Quarter
Feb 15
Full
Feb 23
Last Quarter
Mar 1
New

Hourly Weather History & Observations

Time (+07) Temp. Heat Index Dew Point Humidity Pressure Visibility Wind Dir Wind Speed Gust Speed Precip Events Conditions
12:00 AM 77.0 °F - 71.6 °F 83% 29.74 in 5.0 mi South 8.1 mph - N/A   Unknown
12:30 AM 77.0 °F - 71.6 °F 83% 29.74 in 5.0 mi South 6.9 mph - N/A   Unknown
1:00 AM 77.0 °F - 71.6 °F 83% 29.74 in 5.0 mi South 6.9 mph - N/A   Unknown
6:00 AM 73.4 °F - 68.0 °F 83% 29.74 in 4.3 mi South 5.8 mph - N/A   Unknown
6:30 AM 73.4 °F - 68.0 °F 83% 29.74 in 4.3 mi South 6.9 mph - N/A   Unknown
7:00 AM 72 °F - 70 °F 93% 29.85 in 6 mi South 4.5 mph - -   Scattered Clouds
7:00 AM 73.4 °F - 69.8 °F 88% 29.77 in 4.3 mi South 5.8 mph - N/A   Haze
7:30 AM 75.2 °F - 69.8 °F 83% 29.77 in 4.3 mi SSE 5.8 mph - N/A   Haze
8:00 AM 77.0 °F - 69.8 °F 78% 29.80 in 5.0 mi South 9.2 mph - N/A   Unknown
8:30 AM 77.0 °F - 68.0 °F 74% 29.80 in 5.6 mi SSE 8.1 mph - N/A   Unknown
9:00 AM 77.0 °F - 68.0 °F 74% 29.80 in 5.6 mi South 8.1 mph - N/A   Unknown
9:30 AM 80.6 °F 82.7 °F 66.2 °F 61% 29.80 in 5.6 mi South 10.4 mph - N/A   Unknown
10:00 AM 82.4 °F 84.6 °F 66.2 °F 58% 29.80 in 5.6 mi South 11.5 mph - N/A   Scattered Clouds
10:30 AM 82.4 °F 84.6 °F 66.2 °F 58% 29.80 in 6.2 mi South 10.4 mph - N/A   Scattered Clouds
11:00 AM 84.2 °F 86.6 °F 66.2 °F 55% 29.80 in 6.2 mi SSE 12.7 mph - N/A   Scattered Clouds
11:30 AM 84.2 °F 85.6 °F 64.4 °F 51% 29.77 in 6.2 mi SSE 10.4 mph - N/A   Scattered Clouds
12:00 PM 86.0 °F 87.3 °F 64.4 °F 48% 29.77 in 6.2 mi SSE 6.9 mph - N/A   Scattered Clouds
12:30 PM 86.0 °F 88.2 °F 66.2 °F 51% 29.74 in 6.2 mi South 10.4 mph - N/A   Scattered Clouds
1:00 PM 86.0 °F 88.2 °F 66.2 °F 51% 29.74 in 6.2 mi SSE 5.8 mph - N/A   Scattered Clouds
1:30 PM 86.0 °F 88.2 °F 66.2 °F 51% 29.74 in 6.2 mi SSE 12.7 mph - N/A   Scattered Clouds
2:00 PM 86.0 °F 88.2 °F 66.2 °F 51% 29.71 in 6.2 mi SSE 9.2 mph - N/A   Scattered Clouds
2:30 PM 86.0 °F 88.2 °F 66.2 °F 51% 29.71 in 6.2 mi SE 10.4 mph - N/A   Scattered Clouds
3:00 PM 86.0 °F 88.2 °F 66.2 °F 51% 29.68 in 6.2 mi SSE 9.2 mph - N/A   Scattered Clouds
3:30 PM 87.8 °F 90.4 °F 66.2 °F 49% 29.68 in 6.2 mi SE 11.5 mph - N/A   Scattered Clouds
4:00 PM 87.8 °F 90.4 °F 66.2 °F 49% 29.68 in 6.2 mi SSE 9.2 mph - N/A   Unknown
4:30 PM 86.0 °F 88.2 °F 66.2 °F 51% 29.68 in 6.2 mi SSE 8.1 mph - N/A   Partly Cloudy
5:00 PM 86.0 °F 88.2 °F 66.2 °F 51% 29.68 in - SSE 11.5 mph - N/A   Clear
5:30 PM 86.0 °F 88.2 °F 66.2 °F 51% 29.68 in - SSE 9.2 mph - N/A   Clear
6:30 PM 82.4 °F 85.4 °F 68.0 °F 62% 29.71 in 5.6 mi SSE 5.8 mph - N/A   Unknown
7:00 PM 82.4 °F 85.4 °F 68.0 °F 62% 29.71 in 5.6 mi SSE 5.8 mph - N/A   Unknown
7:30 PM 80.6 °F 83.2 °F 68.0 °F 65% 29.71 in 5.0 mi South 5.8 mph - N/A   Unknown
8:00 PM 80.6 °F 83.2 °F 68.0 °F 65% 29.74 in 5.0 mi SSE 5.8 mph - N/A   Unknown
9:30 PM 78.8 °F - 68.0 °F 69% 29.74 in 5.6 mi South 8.1 mph - N/A   Unknown
10:00 PM 78.8 °F - 69.8 °F 74% 29.74 in 5.6 mi South 5.8 mph - N/A   Unknown
10:30 PM - - - N/A% 29.74 in 5.6 mi South 6.9 mph - N/A   Unknown
11:00 PM 77.0 °F - 69.8 °F 78% 29.74 in 5.6 mi South 6.9 mph - N/A   Unknown